Tracking 27402 objects as of 3-Jun-2023
HD Live streaming from Space Station
objects crossing your sky now

STARLINK-3080

Track STARLINK-3080 now!
10-day predictions
STARLINK-3080 is classified as:


NORAD ID: 49161
Int'l Code: 2021-082AH
Perigee: 577.0 km
Apogee: 581.4 km
Inclination: 70.0 °
Period: 96.1 minutes
Semi major axis: 6950 km
RCS: Unknown
Launch date: September 14, 2021
Source: United States (US)
Launch site: AIR FORCE WESTERN TEST RANGE (AFWTR)
Your satellite tracking list
Your tracking list is empty




NASA's NSSDC Master Catalog

Two Line Element Set (TLE):
1 49161U 21082AH  23153.73435104  .00000097  00000-0  15926-4 0  9998
2 49161  69.9986 323.4137 0003145 271.1839  88.8959 14.98328426 95623
Source of the keplerian elements: AFSPC